www.pogodaiklimat.ru

Погода и климат >> Архив погоды >> Ирак >> Мосул


ПОГОДА в Мосуле

  • Прогноз погоды в Мосуле
  • Монитор погоды в Мосуле

АРХИВ ПОГОДЫ в Мосуле

Время (UTC), дата Ветер
(напр.,м/с)
 
Видим.   Явления Облачность Т
(С)
Тd
(С)
f
(%)
Тe
(С)
Тes
(С)
Комфортность P
(гПа)
Po
(гПа)
Тmin
(С)
Tmax
(С)
R
(мм)
R24
(мм)
S
(см)
06 15.04 З 2 6000 м пыль ясно +19.0 +15.1 78 +21 +30 комфорт 1014.3 988.2 +13.0
09 15.04 З 3 8000 м пыль ясно +22.0 +14.5 62 +25 +40 комфорт 1013.5 987.7
12 15.04 З 3 10 км 10/0
[Cs]
+24.2 +14.0 53 +27 +34 жарко 1012.2 986.6
15 15.04 З 2 8000 м пыль 10/0
[As op]
+22.4 +16.8 71 +27 +27 душно 1012.9 987.1
18 15.04 З 2 10 км 10/0
[Cs]
+20.6 +17.3 81 +25 +25 комфорт 1014.1 988.1 +25.6
21 15.04 З 2 10 км 8/0
[Cs]
+19.0 +16.0 83 +21 +21 комфорт 1015.0 988.9
00 16.04 З 2 10 км 10/0
[Cs]
+17.4 +14.6 84 +18 +18 1014.4 988.1
03 16.04 З 2 10 км 10/6 900 м
[Sc Ac As]
+17.2 +12.9 76 +18 +18 1012.3 986.1
06 16.04 штиль 0 8000 м пыль 10/5 900 м
[Sc As op]
+17.0 +13.0 77 +17 +18 1013.5 987.2 +15.6
09 16.04 ЮЗ 2 10 км 10/5 900 м
[Sc]
+19.0 +13.4 70 +21 +25 комфорт 1012.2 986.1
12 16.04 ЮЗ 2 10 км 6/5 900 м
[Cu med, cong Ac trans]
+23.0 +13.3 54 +26 +31 жарко 1010.3 984.6
15 16.04 СЗ 2 10 км в посл. час дождь 10/8 900 м
[Sc As op]
+21.2 +13.6 62 +24 +24 комфорт 1008.2 982.4
18 16.04 СВ 2 6000 м слаб. ливневой дождь, в посл. час гроза 10/3 840 м
[Cb cap As op]
+15.5 +14.2 92 +15 +15 1011.6 985.2 +23.8 14
21 16.04 Ю 2 6000 м слаб. ливневой дождь 10/5 900 м
[Sc As op]
+14.2 +13.1 93 +14 +14 1010.3 983.9
00 17.04 СВ 2 8000 м в посл. час дождь {ливн. осадки} 10/5 900 м
[Sc As op]
+13.6 +12.0 90 +13 +13 1006.4 980.0
03 17.04 З 2 8000 м в посл. час дождь 8/8 750 м
[Cu Sc]
+13.5 +12.9 96 +13 +13 1006.9 980.5
06 17.04 С 3 8000 м дымка {дождь} 8/8 750 м
[Cu Sc]
+13.4 +10.7 84 +12 +14 1009.9 983.4 +11.5 29
09 17.04 Ю 2 10 км 8/8 750 м
[Cu Sc]
+16.2 +10.5 69 +16 +20 1011.5 985.2
12 17.04 штиль 0 10 км 9/9 750 м
[Cb calv]
+18.0 +11.4 65 +18 +20 1012.0 985.9
15 17.04 ЮЗ 2 10 км 6/4 900 м
[Cu med, cong Ac cuf]
+18.8 +10.9 60 +20 +20 1012.2 986.1
18 17.04 В 2 10 км ясно +16.4 +11.8 74 +17 +17 1013.4 987.1 +20.0
21 17.04 штиль 0 10 км 3/3 900 м
[Sc]
+14.0 +11.7 86 +14 +14 1014.4 987.8
00 18.04 С 2 10 км 9/0
[Ac cast]
+13.8 +11.9 88 +13 +13 1015.1 988.5
03 18.04 В 3 8000 м в посл. час дождь 8/8 840 м
[Cu Sc]
+13.5 +11.2 86 +12 +12 1015.2 988.6
09 18.04 штиль 0 10 км 5/5 900 м
[Cu med, cong]
+20.2 +11.5 57 +22 +34 комфорт 1015.3 989.3
12 18.04 С 2 10 км 6/5 900 м
[Cu med, cong Ci fib]
+21.4 +10.6 50 +23 +28 комфорт 1013.3 987.4
15 18.04 С 2 10 км 9/8 750 м
[Cb calv As op]
+20.6 +10.3 52 +23 +23 комфорт 1011.9 986.0
18 18.04 В 3 8000 м слаб. дождь {гроза} 10/10 840 м
[Cu Sc]
+13.6 +12.1 91 +12 +12 1016.0 989.4 +22.2 8
21 18.04 СВ 3 10 км 3/0
[Ac trans]
+13.2 +10.9 86 +12 +12 1014.7 988.1
00 19.04 С 2 10 км 8/0
[Ac As]
+12.8 +10.5 86 +12 +12 1013.4 986.7
03 19.04 штиль 0 10 км 6/3 900 м
[Sc Ac trans]
+12.0 +11.2 95 +11 +12 1012.9 986.2
06 19.04 штиль 0 10 км 8/0
[Ac und Ci fib]
+15.0 +11.6 80 +15 +21 1013.3 986.9 +11.0
09 19.04 Ю 2 10 км 8/4
[Cu med, cong Ci fib]
+19.6 +11.2 58 +21 +31 комфорт 1012.0 986.0
12 19.04 СЗ 3 8000 м в посл. час гроза {ливн. осадки} 10/10 840 м
[Cu Sc]
+13.2 +9.7 79 +12 +12 1012.3 985.7
15 19.04 С 2 8000 м в посл. час дождь 8/4 900 м
[Cu med, cong Ac trans]
+13.6 +9.2 75 +13 +13 1011.5 985.0
18 19.04 штиль 0 8000 м в посл. час дождь 3/0
[Ac trans]
+12.4 +11.2 92 +12 +12 1012.8 986.1 +20.0 66
21 19.04 штиль 0 10 км 8/0
[Cs]
+12.0 +11.2 95 +11 +11 1012.9 986.2
00 20.04 штиль 0 10 км 10/0
[Cs]
+11.2 +10.0 92 +10 +10 1012.2 985.4
03 20.04 штиль 0 7000 м дымка 10/5 900 м
[Sc As op]
+11.0 +10.2 95 +10 +10 1012.2 985.4
06 20.04 штиль 0 8000 м дымка 6/4 900 м
[Cu med, cong Ac trans]
+13.6 +10.5 82 +13 +20 1013.7 987.1 +10.0 0.4
09 20.04 ЮВ 5 10 км 6/6 900 м
[Cu med, cong]
+16.6 +10.6 68 +16 +20 1014.3 988.0
12 20.04 ЮВ 4 10 км 6/6 900 м
[Cu Sc]
+17.2 +10.2 63 +17 +20 1013.5 987.2
15 20.04 С 5 8000 м ливневой дождь 8/8 900 м
[Cu Sc]
+13.0 +11.1 88 +11 +11 1014.3 987.6
21 20.04 штиль 0 10 км ясно +11.2 +9.4 89 +11 +11 1014.6 987.8
00 21.04 СЗ 2 10 км 6/6 900 м
[Cu Sc]
+10.8 +9.0 89 +9 +9 1014.3 987.4
06 21.04 ЮВ 2 10 км {ливн. осадки} 6/6 900 м
[Cu Sc]
+14.0 +10.9 82 +13 +17 1012.6 986.1 +9.5 0.6
09 21.04 В 4 10 км 6/6 900 м
[Cu med, cong As op]
+19.0 +10.2 57 +20 +25 1010.6 984.6
12 21.04 Ю 6 10 км в посл. час ливневой дождь 8/8 750 м
[Cb calv]
+21.2 +7.9 42 +22 +23 комфорт 1006.8 981.1
15 21.04 З 5 8000 м гроза, ливневой дождь 9/9 750 м
[Cb cap]
+14.9 +7.9 63 +14 +14 1007.5 981.2
18 21.04 В 4 8000 м слаб. дождь {гроза} 10/10 840 м
[Cu Sc]
+13.6 +10.3 80 +12 +12 1009.6 983.1 +21.8 1
21 21.04 С 3 9000 м слаб. дождь 9/9 840 м
[Cu Sc]
+12.2 +10.4 89 +11 +11 1008.1 981.5
00 22.04 штиль 0 7000 м ливневой дождь, в посл. час гроза 10/3 840 м
[Cb cap As op]
+11.4 +10.4 94 +11 +11 1006.4 979.8
03 22.04 СВ 2 8000 м дымка {дождь} 9/6 840 м
[Cu Sc As trans]
+10.0 +7.9 87 +8 +9 1005.9 979.2

 

Местоположение метеостанции Мосул (Ирак): широта 36.32 долгота 43.15 высота над уровнем моря 223 м.

В архиве по умолчанию представлена погода в Мосуле за последнюю неделю. Архивные данные за месяц целиком и за предыдущие месяцы, начиная с января 2011 года, Вы можете получить, выбрав интересующий диапазон дат из раскрывающегося списка и нажав кнопку "Ввод!".


*Определитесь, кто Вы:
робот инопланетянин человек

Внимание! Время в таблицах - всемирное. Для получения местного времени необходимо прибавить поправку, которая равна 3 ч.

Смотрите также архив погоды в соседних городах и на ближайших метеорологических станциях:

Погода в Талль-Афаре (Ирак) (60 км)
Погода в Дохуке (Ирак) (63 км)
Погода в Махмуре (Ирак) (75 км)
Погода в Эрбиле (Ирак) (79 км)
Погода в Акре (Ирак) (81 км)
Погода в Салахадине (Ирак) (94 км)
Погода в Закхо (Ирак) (98 км)
Погода в Рабиа (Ирак) (108 км)
Погода в Киркуке (Ирак) (147 км)
Погода в Ширнаке (Турция) (147 км)

Пояснения к столбцам:

Ветер - указаны скорость ветра в м/с - средняя за 10 мин, порывы в срок и между сроками (в фигурных скобках) и направление, откуда дует ветер: С - северный, СВ - северо-восточный, В - восточный, ЮВ - юго-восточный, Ю - южный, ЮЗ - юго-западный, З - западный, СЗ - северо-западный.
Видимость - горизонтальная дальность видимости в метрах или километрах. При видимости от 1 до 10 км при отсутствии осадков обычно наблюдается дымка, при ухудшении видимости до 1 км и менее - туман. В сухую погоду видимость может ухудшаться дымом, пылью или мглою.
Явления - указаны атмосферные явления, наблюдавшиеся в срок или в последний час перед сроком; фигурными скобками обозначены явления, наблюдавшиеся между сроками (за 1-3 часа до срока); квадратными скобками обозначены град или гололедные отложения с указанием их диаметра в мм.
Облачность - указаны через наклонную черту общая и нижняя облачность в баллах и высота нижней границы облаков в метрах; квадратными скобками обозначены формы облаков: Ci - перистые, Cs - перисто-слоистые, Cc - перисто-кучевые, Ac - высококучевые, As - высокослоистые, Sc - слоисто-кучевые, Ns - слоисто-дождевые, Cu - кучевые, Cb - кучево-дождевые. Подробнее классификацию облаков см. в Атласе облаков (PDF).
T - Температура воздуха - температура, измеренная на высоте 2 м над землей.
Td - Температура точки росы - температура, при понижении до которой содержащийся в воздухе водяной пар достигнет насыщения.
f - Относительная влажность воздуха - влажноcть воздуха, измеренная на высоте 2 м над землей.
Te - Эффективная температура - температура, которую ощущает одетый по сезону человек в тени. Характеристика душности погоды. При расчете учитывается влияние влажности воздуха и скорости ветра на теплоощущения человека.
Tes - Эффективная температура на солнце - температура, которую ощущает человек, с поправкой на солнечный нагрев. Характеристика знойности погоды. Зависит от высоты солнца над горизонтом, облачности и скорости ветра. Ночью, в пасмурную погоду, а также при ветре 12 м/с и более поправка равна нулю.
P - Атмосферное давление - приведенное к уровню моря атмосферное давление.
Po - Атмосферное давление - измеренное на уровне метеостанции атмосферное давление.
Tmin - Минимальная температура - минимум температуры воздуха на высоте 2 м над землей.
Tmax - Максимальная температура - максимум температуры воздуха на высоте 2 м над землей.
R - Количество осадков - Количество выпавших осадков за период времени, мм. При наведении курсора мыши на число - период времени, за который выпало указанное количество осадков.
R24 - Количество осадков - Количество выпавших осадков за 24 часа, мм.
S - Снежный покров - Высота снежного покрова, см. При наведении курсора мыши на число - состояние снежного покрова и степень покрытия местности в баллах.